N4SZO-7 Weather Reports


time (UTC)temp
C
wind
direction
speed
KPH
gust
KPH
rain 1hr
cm
rain 24hr
cm
rain mn
cm
humidity
%
barometer
mb
20260510164757 24 318 3.2 9.7 0.00 0.30 0.00 82 1019.1
20260510164257 23 318 3.2 9.7 0.00 0.33 0.00 82 1019.0
20260510163757 23 246 1.6 4.8 0.00 0.36 0.00 82 1019.0
20260510163257 24 349 1.6 6.4 0.00 0.38 0.00 80 1018.8
20260510163018 23 216 1.6 6.4 0.00 0.43 0.00 83 1018.8
20260510162257 23 290 1.6 4.8 0.00 0.48 0.00 85 1019.0
20260510162028 23 6 0.0 4.8 0.00 0.53 0.00 84 1018.8
20260510161257 23 112 0.0 3.2 0.00 0.64 0.00 85 1018.7
20260510161013 23 69 3.2 4.8 0.00 0.69 0.00 87 1018.6
20260510160304 22 72 3.2 6.4 0.00 0.74 0.00 85 1018.6
20260510155757 22 283 3.2 6.4 0.00 0.79 0.00 87 1018.7
20260510155306 22 271 4.8 4.8 0.00 0.84 0.00 87 1018.8
20260510155026 22 246 0.0 4.8 0.00 0.91 0.00 87 1018.8
20260510154257 22 290 0.0 8.0 0.00 0.97 0.00 88 1018.8
20260510154018 21 284 3.2 8.0 0.00 1.04 0.00 90 1018.8
20260510153258 21 306 3.2 4.8 0.00 1.09 0.00 89 1018.8
20260510152757 22 317 3.2 4.8 0.00 1.14 0.00 90 1018.6
20260510152258 22 243 0.0 3.2 0.00 1.17 0.00 90 1018.8
20260510151757 22 193 3.2 4.8 0.00 1.22 0.00 91 1018.7
20260510151257 21 273 0.0 4.8 0.00 1.27 0.00 91 1018.6
20260510150757 21 233 3.2 4.8 0.00 1.30 0.00 93 1018.9
20260510150257 21 249 1.6 8.0 0.00 1.32 0.00 92 1018.8
20260510145757 21 277 3.2 8.0 0.00 1.40 0.00 92 1018.8
20260510145258 21 289 3.2 3.2 0.00 1.45 0.00 93 1019.0
20260510144757 21 202 0.0 3.2 0.00 1.47 0.00 94 1019.1
20260510144257 21 306 0.0 3.2 0.00 1.50 0.00 94 1019.2
20260510143757 21 8 3.2 6.4 0.00 1.52 0.00 93 1019.0
20260510143257 21 302 0.0 6.4 0.00 1.55 0.00 95 1019.1
20260510143022 21 275 4.8 6.4 0.00 1.60 0.00 93 1018.8
20260510142523 21 282 0.0 3.2 0.00 1.63 0.00 93 1019.0
20260510142025 21 247 3.2 3.2 0.00 1.65 0.00 95 1019.1
20260510141311 20 291 0.0 3.2 0.00 1.70 0.00 96 1018.9
20260510140804 20 276 0.0 3.2 0.00 1.75 0.00 96 1018.8
20260510140523 20 309 0.0 3.2 0.00 1.80 0.00 97 1018.9
20260510135757 20 255 0.0 3.2 0.00 1.83 0.00 98 1018.8
20260510135257 20 330 0.0 3.2 0.00 1.83 0.00 98 1018.8
20260510134757 19 311 0.0 3.2 0.00 1.83 0.00 98 1018.5
20260510134257 20 140 1.6 3.2 0.00 1.85 0.00 98 1018.6
20260510133757 20 239 1.6 3.2 0.00 1.85 0.00 99 1018.6
20260510133258 19 285 1.6 3.2 0.00 1.88 0.00 99 1018.8
20260510132757 19 218 0.0 3.2 0.00 1.88 0.00 99 1018.5
20260510132258 19 279 3.2 3.2 0.00 1.88 0.00 99 1018.6
20260510131757 19 227 0.0 3.2 0.00 1.88 0.00 99 1018.4
20260510131258 19 264 1.6 3.2 0.00 1.88 0.00 99 1018.4
20260510130758 19 277 0.0 4.8 0.00 1.91 0.00 99 1018.3
20260510130257 19 298 1.6 4.8 0.00 1.93 0.00 99 1018.3
20260510125758 18 261 1.6 4.8 0.00 1.93 0.00 99 1018.3
20260510125523 18 281 1.6 4.8 0.00 1.96 0.00 99 1018.4
20260510125022 18 303 1.6 3.2 0.00 1.96 0.00 99 1018.2
20260510124257 18 234 3.2 3.2 0.00 1.96 0.00 99 1018.2
20260510123757 18 276 3.2 3.2 0.00 1.96 0.00 99 1018.1
20260510123258 18 287 0.0 4.8 0.00 1.96 0.00 99 1018.0
20260510122804 18 267 1.6 4.8 0.00 1.96 0.00 99 1017.9
20260510122258 18 293 0.0 3.2 0.00 1.96 0.00 99 1017.9
20260510121757 18 273 3.2 3.2 0.00 1.96 0.00 99 1017.8
20260510120757 18 284 3.2 4.8 0.00 1.96 0.00 99 1017.5
20260510120257 18 279 1.6 6.4 0.00 1.96 0.00 99 1017.5
20260510115757 18 269 0.0 6.4 0.00 1.96 0.00 99 1017.3
20260510115258 18 302 1.6 3.2 0.00 1.96 0.00 99 1017.2
20260510114758 18 265 1.6 3.2 0.00 1.96 0.00 99 1017.3
20260510114304 18 309 1.6 3.2 0.00 1.96 0.00 99 1017.2
20260510113757 18 254 3.2 3.2 0.00 1.96 0.00 99 1017.0
20260510113257 18 294 1.6 3.2 0.00 1.96 0.00 99 1016.9
20260510112258 18 235 0.0 3.2 0.00 1.96 0.00 99 1016.8
20260510112017 18 293 0.0 3.2 0.00 1.96 0.00 99 1016.8
20260510111257 18 304 0.0 3.2 0.00 1.96 0.00 99 1016.7
20260510110757 18 89 0.0 3.2 0.00 1.96 0.00 99 1016.8
20260510110519 18 310 0.0 3.2 0.00 1.96 0.00 99 1016.7
20260510110019 18 256 3.2 3.2 0.00 1.98 0.00 99 1016.4
20260510105257 18 263 1.6 3.2 0.00 1.98 0.00 99 1016.6
20260510104804 18 314 1.6 3.2 0.00 1.98 0.00 99 1016.4
20260510104304 18 286 1.6 3.2 0.00 1.98 0.00 99 1016.2
20260510103757 18 290 0.0 3.2 0.00 1.98 0.00 99 1016.2
20260510103258 18 313 0.0 3.2 0.00 1.98 0.00 99 1016.3
20260510102757 18 258 1.6 3.2 0.00 1.98 0.00 99 1016.2
20260510102257 18 255 0.0 3.2 0.00 1.98 0.00 99 1016.0
20260510101757 18 245 0.0 3.2 0.00 1.98 0.00 99 1016.0
20260510101257 18 252 1.6 3.2 0.00 1.98 0.00 99 1016.0
20260510100757 18 250 1.6 3.2 0.00 1.98 0.00 99 1016.1
20260510100257 18 212 0.0 3.2 0.00 1.98 0.00 99 1015.9
20260510095758 18 253 3.2 3.2 0.00 2.01 0.00 99 1015.8
20260510095257 18 262 1.6 3.2 0.00 2.01 0.00 99 1015.9
20260510095027 18 263 0.0 3.2 0.00 2.01 0.00 99 1015.9
20260510094257 18 279 1.6 3.2 0.00 2.01 0.00 99 1015.7
20260510093757 18 228 0.0 3.2 0.00 2.01 0.00 99 1015.7
20260510093257 18 249 1.6 4.8 0.00 2.01 0.00 99 1015.7
20260510092804 18 266 1.6 4.8 0.00 2.01 0.00 99 1015.6
20260510092257 18 294 3.2 4.8 0.00 2.01 0.00 99 1015.6
20260510091758 18 288 0.0 3.2 0.00 2.01 0.00 99 1015.5
20260510091251 18 293 1.6 3.2 0.00 2.01 0.00 98 1015.3
20260510090745 18 257 1.6 3.2 0.00 2.01 0.00 99 1015.2
20260510090509 18 251 1.6 3.2 0.00 2.03 0.00 98 1015.2
20260510085745 18 262 3.2 3.2 0.00 2.03 0.00 98 1015.0
20260510085245 18 245 0.0 3.2 0.00 2.06 0.00 98 1015.1
20260510084745 18 249 0.0 3.2 0.00 2.06 0.00 98 1015.3
20260510084245 18 240 1.6 3.2 0.00 2.06 0.00 98 1015.0
20260510083745 18 283 0.0 3.2 0.00 2.06 0.00 98 1015.1
20260510083245 18 268 0.0 4.8 0.00 2.06 0.00 98 1015.0
20260510082745 18 288 1.6 4.8 0.00 2.06 0.00 98 1014.8
20260510082245 18 271 0.0 3.2 0.00 2.06 0.00 98 1015.0
20260510081746 18 311 1.6 4.8 0.00 2.06 0.00 98 1014.8
20260510081245 18 268 1.6 4.8 0.00 2.06 0.00 98 1014.8
20260510080745 18 268 1.6 4.8 0.00 2.11 0.00 98 1014.7
20260510080253 18 275 1.6 4.8 0.00 2.11 0.00 98 1014.8
20260510075745 18 265 3.2 4.8 0.00 2.11 0.00 98 1014.5
20260510075246 18 268 1.6 4.8 0.00 2.13 0.00 98 1014.4
20260510074753 18 277 3.2 4.8 0.00 2.16 0.00 98 1014.5
20260510074245 18 260 1.6 3.2 0.00 2.18 0.00 98 1014.3
20260510073745 18 7 0.0 3.2 0.00 2.21 0.00 98 1014.4
20260510073509 18 257 1.6 3.2 0.00 2.21 0.00 98 1014.6
20260510072745 18 281 1.6 4.8 0.00 2.21 0.00 99 1014.6
20260510072246 19 297 1.6 4.8 0.00 2.24 0.00 98 1014.8
20260510071745 19 298 3.2 4.8 0.00 2.24 0.00 99 1014.7
20260510071246 19 248 0.0 4.8 0.00 2.26 0.00 99 1014.9
20260510070746 19 317 3.2 4.8 0.00 2.26 0.00 99 1014.7
20260510070245 19 285 1.6 3.2 0.00 2.26 0.00 99 1014.7
20260510065745 19 279 1.6 4.8 0.00 2.26 0.00 98 1014.7
20260510065245 19 255 1.6 4.8 0.00 2.26 0.00 98 1014.7
20260510064745 19 288 1.6 3.2 0.00 2.26 0.00 98 1014.7
20260510063746 19 266 0.0 3.2 0.00 2.26 0.00 98 1014.6
20260510063246 19 241 0.0 3.2 0.00 2.26 0.00 98 1014.6
20260510062745 19 219 0.0 3.2 0.00 2.26 0.00 98 1014.4
20260510062516 19 269 0.0 3.2 0.00 2.26 0.00 98 1014.5
20260510061746 19 224 0.0 3.2 0.00 2.26 0.00 98 1014.2
20260510061507 19 5 0.0 3.2 0.00 2.26 0.00 98 1014.3
20260510060746 19 221 0.0 3.2 0.00 2.26 0.00 98 1014.5
20260510060245 19 290 0.0 3.2 0.00 2.26 0.00 98 1014.6
20260510060009 18 251 0.0 3.2 0.00 2.26 0.00 98 1014.6
20260510055239 18 313 3.2 3.2 0.00 2.26 0.00 98 1014.7
20260510054733 18 237 0.0 3.2 0.00 2.26 0.00 98 1014.8
20260510054249 19 278 1.6 4.8 0.00 2.26 0.00 98 1014.7
20260510053233 19 322 3.2 3.2 0.00 2.26 0.00 98 1014.4
20260510052734 19 267 1.6 3.2 0.00 2.26 0.00 98 1014.9
20260510052233 19 283 0.0 3.2 0.00 2.26 0.00 98 1014.6
20260510051733 19 236 1.6 3.2 0.00 2.26 0.00 98 1014.5
20260510051234 19 227 0.0 3.2 0.00 2.26 0.00 98 1015.0
20260510050233 19 278 1.6 3.2 0.00 2.26 0.00 98 1015.2
20260510045740 19 273 1.6 4.8 0.00 2.26 2.26 98 1015.1
20260510045233 19 292 4.8 4.8 0.00 2.26 2.26 98 1015.1
20260510044953 19 285 3.2 4.8 0.00 2.26 2.26 98 1015.3
20260510044451 19 307 1.6 4.8 0.00 2.26 2.26 98 1015.4
20260510043959 19 291 3.2 4.8 0.00 2.26 2.26 98 1015.2
20260510043233 19 315 1.6 3.2 0.00 2.26 2.26 98 1015.4
20260510042733 19 280 1.6 4.8 0.00 2.26 2.26 98 1015.5
20260510042233 19 234 1.6 4.8 0.00 2.26 2.26 98 1015.6
20260510041733 19 273 3.2 3.2 0.00 2.26 2.26 98 1015.6
20260510041233 19 258 0.0 4.8 0.00 2.26 2.26 98 1015.9
20260510040733 19 297 3.2 4.8 0.00 2.26 2.26 98 1015.9
20260510040234 19 246 0.0 6.4 0.00 2.26 2.26 98 1016.0
20260510035953 19 313 4.8 6.4 0.00 2.26 2.26 98 1016.3
20260510035233 19 273 1.6 4.8 0.00 2.26 2.26 98 1016.0
20260510034734 19 266 0.0 3.2 0.00 2.26 2.26 98 1015.5
20260510034233 19 299 1.6 3.2 0.00 2.26 2.26 98 1015.5
20260510033734 19 129 0.0 3.2 0.00 2.26 2.26 98 1015.4
20260510033233 19 311 0.0 3.2 0.00 2.26 2.26 98 1015.4
20260510032733 19 214 0.0 3.2 0.00 2.26 2.26 98 1015.2
20260510032233 19 251 0.0 3.2 0.00 2.26 2.26 98 1015.8
20260510031734 19 233 1.6 3.2 0.00 2.26 2.26 98 1015.8
20260510031233 19 264 1.6 3.2 0.00 2.26 2.26 98 1015.5
20260510030733 19 271 1.6 3.2 0.00 2.26 2.26 98 1015.7
20260510030233 19 308 1.6 3.2 0.00 2.26 2.26 98 1015.8
20260510030001 19 333 0.0 3.2 0.00 2.26 2.26 98 1015.6
20260510025234 19 309 0.0 3.2 0.00 2.26 2.26 98 1015.6
20260510024733 19 253 3.2 3.2 0.00 2.26 2.26 98 1015.6
20260510024233 19 267 1.6 3.2 0.00 2.26 2.26 98 1015.3
20260510023734 19 298 1.6 3.2 0.00 2.26 2.26 98 1015.2
20260510023500 20 248 0.0 3.2 0.00 2.26 2.26 98 1015.0
20260510022733 20 245 1.6 3.2 0.00 2.26 2.26 98 1015.1
20260510022233 20 260 0.0 1.6 0.00 2.26 2.26 98 1014.8
20260510021733 20 269 0.0 3.2 0.00 2.26 2.26 98 1015.0
20260510021234 20 242 0.0 3.2 0.00 2.29 2.26 98 1015.0
20260510020733 20 259 0.0 3.2 0.00 2.31 2.26 98 1015.0
20260510020234 20 269 1.6 3.2 0.00 2.31 2.26 98 1015.0
20260510015733 20 327 0.0 3.2 0.00 2.34 2.26 98 1015.1
20260510015234 20 315 1.6 3.2 0.00 2.36 2.26 98 1015.3
20260510014733 20 310 0.0 3.2 0.00 2.39 2.26 98 1015.3
20260510014452 20 255 0.0 3.2 0.00 2.39 2.26 98 1015.4
20260510013734 20 289 1.6 3.2 0.00 2.39 2.26 98 1015.3
20260510013233 20 309 0.0 3.2 0.03 2.39 2.26 98 1015.2
20260510012952 20 293 0.0 3.2 0.03 2.39 2.26 98 1014.9
20260510012234 20 246 0.0 3.2 0.03 2.39 2.26 98 1014.8
20260510011733 20 39 0.0 3.2 0.03 2.39 2.26 98 1014.7
20260510011233 20 242 0.0 3.2 0.03 2.39 2.26 98 1014.9
20260510010733 20 26 1.6 3.2 0.05 2.41 2.26 98 1014.9
20260510010234 20 283 0.0 3.2 0.03 2.39 2.26 98 1015.0
20260510005741 20 264 0.0 3.2 0.03 2.39 2.26 98 1014.9
20260510005234 20 295 0.0 3.2 0.03 2.39 2.26 98 1015.1
20260510004733 20 263 0.0 4.8 0.03 2.39 2.26 98 1015.0
20260510004233 20 256 3.2 4.8 0.03 2.41 2.26 98 1015.1
20260510003733 20 294 0.0 4.8 0.03 2.41 2.26 98 1015.1
20260510003234 20 248 3.2 4.8 0.03 2.39 2.24 98 1015.2
20260510002733 20 289 3.2 4.8 0.03 2.39 2.24 98 1015.2
20260510002233 20 333 0.0 6.4 0.03 2.39 2.24 98 1015.3
20260510001733 20 258 4.8 6.4 0.03 2.39 2.24 98 1015.1
20260510001459 20 305 3.2 3.2 0.05 2.39 2.24 98 1014.7
20260510000733 20 241 1.6 3.2 0.03 2.39 2.21 97 1014.3
20260510000233 20 322 0.0 3.2 0.05 2.39 2.21 97 1014.3
20260509235733 20 322 1.6 3.2 0.05 2.39 2.21 97 1014.0
20260509235502 20 125 0.0 3.2 0.05 2.39 2.21 97 1013.6
20260509234746 20 240 0.0 3.2 0.08 2.39 2.21 97 1013.7
20260509234233 20 309 0.0 3.2 0.08 2.39 2.21 97 1013.4
20260509233734 20 269 0.0 4.8 0.10 2.39 2.21 97 1013.9
20260509233234 20 265 3.2 4.8 0.10 2.39 2.21 97 1014.3
20260509232734 20 218 3.2 4.8 0.13 2.39 2.21 97 1014.6
20260509232233 20 256 3.2 4.8 0.13 2.36 2.21 97 1014.6
20260509231733 20 229 1.6 6.4 0.10 2.36 2.21 97 1014.4
20260509231454 20 272 1.6 6.4 0.10 2.36 2.18 97 1014.1
20260509230740 20 264 3.2 6.4 0.10 2.36 2.18 97 1014.3
20260509230459 20 268 3.2 6.4 0.10 2.36 2.18 97 1013.9
20260509225733 20 314 3.2 4.8 0.10 2.36 2.16 97 1013.2
20260509225233 20 284 0.0 4.8 0.10 2.36 2.16 97 1013.2
20260509224733 20 254 1.6 4.8 0.10 2.36 2.16 97 1013.4
20260509224233 20 303 1.6 3.2 0.08 2.36 2.13 97 1013.3
20260509223733 20 189 1.6 3.2 0.05 2.36 2.13 97 1013.3
20260509223233 20 165 1.6 3.2 0.05 2.36 2.11 97 1013.3
20260509222948 20 246 0.0 3.2 0.05 2.36 2.11 97 1013.6
20260509222502 20 232 1.6 3.2 0.05 2.36 2.08 97 1014.1
20260509221733 20 245 0.0 3.2 0.05 2.36 2.08 97 1014.0
20260509221234 20 286 3.2 3.2 0.05 2.39 2.08 97 1014.0
20260509220953 20 335 1.6 4.8 0.05 2.39 2.08 97 1013.8
20260509220233 20 214 0.0 4.8 0.05 2.41 2.06 97 1013.8
20260509215733 20 317 3.2 3.2 0.05 2.44 2.06 97 1013.9
20260509215233 20 256 0.0 3.2 0.05 2.44 2.06 97 1014.0
20260509214733 20 315 0.0 3.2 0.05 2.44 2.06 97 1014.0
20260509214234 20 257 0.0 4.8 0.05 2.46 2.06 97 1013.7
20260509213733 20 286 0.0 4.8 0.05 2.49 2.06 96 1014.3
20260509213233 20 290 3.2 3.2 0.05 2.54 2.06 96 1014.0
20260509212734 20 300 3.2 4.8 0.05 2.57 2.06 96 1014.1
20260509212233 20 245 1.6 4.8 0.05 2.59 2.03 96 1014.2
20260509211953 20 275 1.6 4.8 0.03 2.59 2.03 96 1014.4
20260509211233 20 332 0.0 4.8 0.03 2.67 2.03 96 1014.0
20260509210733 20 218 0.0 4.8 0.03 2.74 2.03 96 1014.2
20260509210234 20 296 1.6 4.8 0.03 2.84 2.03 96 1013.7
20260509205952 20 294 3.2 3.2 0.03 3.00 2.03 96 1013.4
20260509205457 20 255 0.0 4.8 0.00 3.02 2.01 95 1013.6
20260509205005 20 252 0.0 4.8 0.00 3.07 2.01 95 1013.7
20260509204233 20 327 3.2 4.8 0.00 3.12 2.01 95 1013.5
20260509203733 20 263 1.6 4.8 0.00 3.20 2.01 96 1013.3
20260509203233 20 278 1.6 4.8 0.00 3.33 2.01 96 1013.6
20260509202733 20 259 3.2 6.4 0.00 3.38 2.01 95 1013.9
20260509202234 20 242 3.2 6.4 0.00 3.43 2.01 95 1013.8
20260509201733 20 255 3.2 6.4 0.00 3.43 2.01 95 1013.7
20260509201233 20 313 1.6 6.4 0.00 3.43 2.01 94 1013.5
20260509200952 20 289 3.2 6.4 0.00 3.45 2.01 94 1013.6
20260509195733 20 237 1.6 4.8 0.00 3.48 2.01 95 1013.1
20260509195233 20 215 4.8 4.8 0.00 3.51 2.01 96 1012.8
20260509194953 20 292 3.2 8.0 0.00 3.53 2.01 94 1013.0
20260509194233 20 292 0.0 8.0 0.00 3.53 2.01 95 1012.8
20260509193733 20 216 6.4 8.0 0.00 3.58 2.01 95 1013.1
20260509193233 20 251 8.0 8.0 0.00 3.61 2.01 95 1013.0
20260509192733 20 292 3.2 4.8 0.00 3.61 2.01 96 1011.5
20260509192233 20 309 0.0 4.8 0.00 3.63 2.01 95 1012.2
20260509191733 20 169 1.6 6.4 0.00 3.63 2.01 95 1012.0
20260509191453 20 279 1.6 6.4 0.00 3.63 2.01 94 1012.1
20260509190740 20 277 4.8 6.4 0.00 3.63 2.01 94 1012.1
20260509190233 20 204 3.2 4.8 0.00 3.63 1.98 94 1011.8
20260509185733 20 304 0.0 4.8 0.00 3.63 1.98 95 1012.1
20260509185458 20 291 1.6 4.8 0.00 3.66 1.98 93 1012.5
20260509184948 20 220 1.6 6.4 0.00 3.66 1.98 93 1012.5
20260509184453 20 269 0.0 8.0 0.00 3.66 1.98 92 1013.0
20260509183734 20 297 0.0 9.7 0.00 3.66 1.98 92 1013.0
20260509183233 20 210 4.8 9.7 0.00 3.66 1.98 91 1013.2
20260509182733 20 254 3.2 9.7 0.00 3.66 1.98 92 1013.2
20260509182458 20 303 4.8 9.7 0.00 3.66 1.98 91 1013.0
20260509181733 20 234 1.6 9.7 0.00 3.66 1.98 92 1013.1
20260509181233 20 269 0.0 8.0 0.00 3.66 1.98 94 1012.9
20260509180747 20 312 0.0 8.0 0.00 3.66 1.98 94 1012.9
20260509180233 20 86 1.6 6.4 0.00 3.66 1.98 94 1013.0
20260509175952 19 240 0.0 4.8 0.00 3.66 1.98 95 1012.9
20260509175233 19 197 0.0 9.7 0.03 3.66 1.98 96 1012.8
20260509174733 19 266 1.6 9.7 0.03 3.66 1.98 96 1012.8
20260509174234 19 238 4.8 9.7 0.05 3.66 1.98 96 1013.1
20260509173733 19 111 1.6 6.4 0.08 3.66 1.98 96 1013.3
20260509173234 19 180 0.0 9.7 0.13 3.66 1.98 96 1013.4
20260509172733 18 169 1.6 9.7 0.15 3.66 1.98 96 1014.0
20260509172233 18 11 3.2 6.4 0.20 3.66 1.98 97 1014.2
20260509171733 18 29 3.2 4.8 0.25 3.66 1.98 97 1014.4
20260509171233 18 247 1.6 4.8 0.36 3.66 1.98 97 1014.7
20260509170733 18 67 1.6 4.8 0.41 3.66 1.98 97 1014.9
20260509170232 18 315 0.0 6.4 0.46 3.66 1.98 97 1015.0
20260509165956 18 3 0.0 8.0 0.51 3.66 1.98 97 1015.1
20260509165234 18 320 1.6 8.0 0.56 3.63 1.98 98 1015.2